Hourly Data Report for October 16, 2016

All times are specified in Local Standard Time (LST). Add 1 hour to adjust for Daylight Saving Time where and when it is observed.

GJOA HAVEN A
NUNAVUT

68°38'08.000" N
95°51'01.000" W
46.90 m
2302337
71597
YHK

Download Data

Hourly Data (October 2016)
Hourly Data Report for October 16, 2016
Temp Definition
°C
Dew Point Temp Definition
°C
Rel Hum Definition
%
Wind Dir Definition
10's deg

Wind Spd Definition
km/h
Visibility Definition
km
Stn Press Definition
kPa
Hmdx Definition


Wind Chill Definition


Weather Definition


TIME
00:00 Legend Double Dagger -8.5 -9.2 95 29 13 6.4 100.14   -14 Snow
01:00 Legend Double Dagger -7.4 -8.3 93 29 11 6.4 100.17   -12 Snow
02:00 Legend Double Dagger -8.4 -9.2 94 29 11 6.4 100.20   -14 Snow
03:00 Legend Double Dagger -9.1 -10.0 93 30 15 12.9 100.25   -16 Snow
04:00 Legend Double Dagger -9.0 -10.2 91 30 21 8.1 100.30   -17 Snow
05:00 Legend Double Dagger -9.7 -11.5 87 30 18 16.1 100.33   -17 LegendNANA
06:00 Legend Double Dagger -11.9 -13.4 89 29 15 16.1 100.35   -19 LegendNANA
07:00 Legend Double Dagger -13.7 -15.0 90 29 15 16.1 100.40   -21 LegendNANA
08:00 Legend Double Dagger -13.3 -15.2 86 29 18 16.1 100.46   -22 LegendNANA
09:00 Legend Double Dagger -13.6 -15.2 88 28 22 16.1 100.53   -23 LegendNANA
10:00 Legend Double Dagger -12.3 -14.3 85 28 18 16.1 100.58   -20 LegendNANA
11:00 Legend Double Dagger -11.2 -13.3 85 29 21 16.1 100.61   -20 LegendNANA
12:00 Legend Double Dagger -12.2 -13.8 88 30 21 16.1 100.66   -21 LegendNANA
13:00 Legend Double Dagger -12.1 -13.3 91 31 26 16.1 100.70   -22 LegendNANA
14:00 Legend Double Dagger -12.3 -13.4 92 31 22 16.1 100.76   -21 LegendNANA
15:00 Legend Double Dagger -12.7 -13.9 91 31 21 16.1 100.82   -21 LegendNANA
16:00 Legend Double Dagger -12.9 -13.9 92 32 26 16.1 100.83   -23 LegendNANA
17:00 Legend Double Dagger -13.3 -14.3 92 32 24 16.1 100.87   -23 LegendNANA
18:00 Legend Double Dagger -11.7 -12.9 91 32 17 16.1 100.92   -19 LegendNANA
19:00 Legend Double Dagger -11.0 -12.3 90 33 17 16.1 100.96   -18 Snow
20:00 Legend Double Dagger -11.0 -12.6 88 32 21 16.1 101.00   -19 LegendNANA
21:00 Legend Double Dagger -11.8 -13.4 88 33 17 16.1 101.05   -19 LegendNANA
22:00 Legend Double Dagger -12.8 -14.0 91 32 17 16.1 101.11   -21 Snow
23:00 Legend Double Dagger -13.7 -14.7 92 31 17 16.1 101.14   -22 LegendNANA

Notes on Data Quality.

Legend

  • E = Estimated
  • M = Missing
  • NA = Not Available
  • ‡ = Partner data that is not subject to review by the National Climate Archives
Date modified: